Location: Unspecified
(43.4354°N, 0.0000°E)
Time: 02:31:44
(UTC+00:00)

Courier 1B Rocket - Visible Passes

Search period start: 17 June 2019 00:00
Search period end: 27 June 2019 00:00
Orbit: 920 x 1202 km, 28.2° (Epoch: 16 June)

Date Brightness Start Highest point End Pass type
(mag) Time Alt. Az. Time Alt. Az. Time Alt. Az.
23 Jun 7.0 02:50:31 10° S 02:52:44 12° SSE 02:54:55 10° SE visible
24 Jun 6.7 03:39:53 10° SSW 03:44:23 18° SSE 03:48:42 10° SE visible
25 Jun 6.8 02:41:09 13° S 02:43:37 16° SSE 02:47:29 10° SE visible
26 Jun 7.0 01:43:35 13° SSE 01:43:35 13° SSE 01:45:47 10° SE visible
26 Jun 6.5 03:30:12 10° SW 03:35:18 21° S 03:40:11 10° SE visible
